Regional Weather Roundup
Issued by NWS

Home | Current Version | Previous Version | Text Only | Print | Product List | Glossary Off
Versions: 1 2 3 4 5 6 7 8 9 10 11 12 13 14 15 16 17 18 19 20 21 22 23 24 25 26 27 28 29 30 31 32 33 34 35 36 37 38 39 40 41 42 43 44 45 46 47 48 49 50

205
ASUS43 KLSX 242207
RWRMO

WEATHER SUMMARY FOR MISSOURI
NATIONAL WEATHER SERVICE SPRINGFIELD MO
500 PM CDT FRI MAR 24 2017

NOTE: "FAIR" INDICATES FEW OR NO CLOUDS BELOW 12,000 FEET WITH NO
       SIGNIFICANT WEATHER AND/OR OBSTRUCTIONS TO VISIBILITY.
       CURRENT SKY AND/OR WEATHER CONDITIONS ARE NOT AVAILABLE FOR
       CHILLICOTHE AND FARMINGTON.

MOZ001>031-035>038-043-044-053-054-242300-
...NORTHERN AND WESTERN MISSOURI...

CITY           SKY/WX    TMP DP  RH WIND       PRES   REMARKS
KANSAS CTY INT CLOUDY    59  58  96 E12       29.85R
KANSAS C DTWN  CLOUDY    63  60  90 E7        29.84F
LEE`S SUMMIT   CLOUDY    60  60 100 SE14      29.85F
ST JOSEPH      LGT RAIN  58  57  97 E8        29.85S
CHILLICOTHE      N/A     56  55  97 E8        29.92F
KIRKSVILLE     RAIN      57  56  96 S6        29.95R FOG

$$
MOZ066>068-077>081-088>096-101>105-242300-
...SOUTHWEST MISSOURI...

CITY           SKY/WX    TMP DP  RH WIND       PRES   REMARKS
SPRINGFIELD    RAIN      60  58  92 SE6       29.90F FOG
JOPLIN         LGT RAIN  61  59  93 S15G25    29.81F
BRANSON        CLOUDY    70  54  56 S7        29.90F

$$
MOZ032>034-039>042-045>050-055>058-069>072-242300-
...CENTRAL MISSOURI...

CITY           SKY/WX    TMP DP  RH WIND       PRES   REMARKS
COLUMBIA       LGT RAIN  62  59  90 N6        29.92S
JEFFERSON CITY CLOUDY    68  55  63 NW6       29.92R
ROLLA          PTSUNNY   72  52  49 S17G33    29.93R
SEDALIA        LGT RAIN  61  58  90 S10       29.91F
WHITEMAN AFB   LGT RAIN  58  58 100 S7        29.88S
WARRENSBURG    DRIZZLE   59  55  88 SE7       29.88F
OSAGE BEACH    CLOUDY   N/A N/A N/A W8        29.93R

$$
MOZ051-052-059>065-242300-
...EAST CENTRAL MISSOURI...

CITY           SKY/WX    TMP DP  RH WIND       PRES   REMARKS
ST LOUIS INTL  CLOUDY    76  51  41 S16G22    29.96R
SPIRIT OF STL  CLOUDY    75  52  44 S13G24    29.94R
ST CHARLES     CLOUDY    77  51  40 SW18G28   29.94R

$$
MOZ072>076-082>087-097>100-106>115-242300-
...SOUTH CENTRAL AND SOUTHEAST MISSOURI...

CITY           SKY/WX    TMP DP  RH WIND       PRES   REMARKS
CAPE GIRARDEAU CLOUDY    72  57  59 S16       30.01F
FARMINGTON     CLOUDY    71  55  56 S18G25    29.98S
POPLAR BLUFF   CLOUDY    73  58  59 S13G23    29.97F
WEST PLAINS    PTSUNNY   71  55  56 S17G25    29.95F

$$




USA.gov is the U.S. government's official web portal to all federal, state and local government web resources and services.